GFSNIL_sfc_dewp_177.txt.gz
Dewpoint
42 43 43 42 42 42 43 44 44 44 45 46 47 47 47 47 46 45 44 44 46 46
38 38 39 39 40 41 41 42 42 42 43 44 45 46 46 46 46 45 44 44 44 46
37 38 38 38 37 37 38 39 38 39 40 41 42 43 44 45 46 46 45 44 44 45
36 37 37 36 36 36 37 36 37 38 38 39 40 41 41 41 43 44 45 45 44 43
36 36 35 35 35 36 36 37 37 37 37 37 38 38 39 39 40 41 41 43 44 44
34 34 35 35 36 36 37 37 37 37 37 37 38 38 37 38 38 39 40 41 42 43
33 34 34 35 35 36 36 36 36 36 37 37 37 37 38 38 38 39 39 40 41 42
33 34 34 34 34 35 35 35 35 35 35 36 36 36 38 39 39 39 39 39 40 41
33 33 33 33 33 34 34 34 34 34 34 35 35 40 42 42 39 38 38 38 39 41
33 33 33 33 33 33 33 33 33 33 33 34 34 39 42 43 39 38 38 38 39 40
33 33 33 33 33 33 33 33 33 33 33 33 33 39 41 41 38 36 36 37 37 38
33 33 33 33 33 33 33 33 33 34 34 34 34 39 41 39 36 36 36 36 36 36
31 30 30 31 32 33 33 33 35 35 35 36 36 37 41 39 37 35 36 36 37 39
30 30 29 29 30 31 32 34 35 36 36 35 35 34 40 41 37 37 37 37 37 37

GFSNIL_sfc_dewp_180.txt.gz
Dewpoint
45 43 42 42 41 41 41 42 43 43 43 43 44 45 46 47 46 46 45 44 44 45
38 37 38 38 39 39 39 39 40 39 39 40 41 43 44 45 45 45 45 45 44 44
36 37 37 37 36 36 36 37 37 37 38 38 39 40 41 42 43 44 45 45 44 44
36 36 36 36 36 36 36 36 37 38 38 38 38 38 38 39 39 40 42 43 43 43
34 34 34 35 35 36 36 37 37 37 37 37 38 38 37 38 38 38 38 40 41 41
33 33 34 34 35 35 35 36 36 36 36 36 37 37 37 37 37 38 38 39 40 40
32 33 34 34 34 35 35 35 35 35 36 36 36 36 37 37 38 38 38 39 39 39
32 33 34 34 34 34 34 34 35 34 34 34 35 35 36 38 38 38 38 38 38 39
32 33 33 33 33 33 34 33 34 33 33 34 33 38 41 41 39 38 37 36 37 38
32 33 33 33 33 33 33 33 33 33 33 33 34 38 40 42 39 37 36 36 36 37
33 33 33 33 32 32 33 33 33 33 33 34 34 38 40 42 38 36 35 36 36 36
33 33 31 30 30 31 32 32 32 33 34 35 35 39 40 41 35 35 35 36 36 36
31 31 29 29 29 30 31 32 32 33 35 36 36 38 39 40 36 34 35 35 36 39
28 27 26 27 27 27 27 29 30 31 33 34 35 35 39 41 37 36 35 35 35 36

GFSNIL_sfc_dewp_183.txt.gz
Dewpoint
45 44 42 41 40 40 40 40 40 40 39 39 40 42 43 44 45 45 45 44 43 44
37 37 38 38 37 38 37 37 37 37 37 37 38 39 40 42 42 43 44 44 44 43
36 36 36 36 35 36 36 36 36 37 37 37 37 37 38 39 40 40 41 43 43 43
35 35 34 35 35 35 36 36 37 37 37 37 37 37 37 37 37 38 38 39 40 41
33 33 33 34 34 35 35 36 36 36 36 36 36 37 37 36 37 37 37 38 38 39
32 32 33 34 34 34 34 35 35 35 35 35 36 36 36 36 37 37 38 38 38 38
31 32 33 34 34 34 34 34 34 34 35 35 34 35 35 36 37 37 38 38 38 37
31 32 33 33 33 34 34 34 34 34 34 34 34 33 34 37 37 37 37 37 37 37
31 32 32 33 33 33 33 33 33 33 33 33 33 37 40 41 38 38 37 36 35 36
32 32 32 33 33 32 32 32 32 32 32 32 33 38 40 42 39 37 36 35 35 35
31 32 33 32 31 30 30 31 31 32 32 32 34 38 40 41 39 36 35 35 35 34
31 31 31 29 28 28 29 29 30 31 32 32 33 37 40 41 37 35 35 35 35 35
29 28 27 27 27 27 29 28 29 29 30 33 33 36 37 39 37 34 35 34 35 38
29 28 26 25 26 25 25 25 25 26 27 29 31 32 37 38 37 36 35 34 34 35

GFSNIL_sfc_dewp_189.txt.gz
Dewpoint
46 45 42 41 40 39 39 39 39 38 38 39 39 39 39 40 40 41 43 43 44 44
39 39 39 38 37 38 38 36 38 38 38 38 38 38 38 38 38 39 40 41 42 42
37 36 36 36 36 36 36 37 37 37 37 37 37 37 37 37 38 37 38 38 39 39
35 35 34 34 35 35 36 36 36 36 36 36 36 36 36 36 36 36 37 37 38 39
34 34 34 34 34 35 35 35 35 35 35 35 35 35 35 35 35 35 35 36 38 37
33 33 33 34 34 34 34 34 34 34 34 34 35 34 34 34 34 35 35 36 36 36
32 32 33 33 34 34 34 34 33 33 33 34 33 33 33 33 34 35 36 37 37 37
32 32 32 33 34 34 34 33 32 31 31 31 31 31 33 35 36 37 37 38 38 38
31 31 31 32 33 32 31 29 29 28 29 31 29 34 36 36 36 37 38 37 38 37
30 30 30 30 30 29 28 28 28 28 28 28 29 33 35 36 35 36 37 37 37 37
30 29 29 28 28 27 27 27 26 26 27 27 27 32 33 35 34 34 35 36 37 36
29 28 27 26 25 25 25 24 24 25 26 25 25 30 32 32 30 32 34 35 36 36
28 26 24 24 24 25 24 23 24 23 24 26 25 28 30 30 28 30 32 33 34 36
25 24 23 23 23 22 22 22 22 22 22 22 23 23 30 30 27 29 31 31 32 33

GFSNIL_sfc_dewp_195.txt.gz
Dewpoint
49 46 44 42 40 38 39 40 40 39 39 38 38 38 39 40 40 40 42 42 42 41
42 42 41 40 39 39 38 35 37 37 36 36 36 36 37 37 37 38 39 40 42 40
38 37 38 38 37 37 36 36 36 35 35 35 35 35 35 36 36 36 37 36 36 37
35 35 34 35 35 35 35 35 35 35 35 34 33 33 33 33 34 33 34 35 35 35
36 36 35 34 34 35 34 35 35 34 32 31 31 31 31 31 32 31 32 33 33 33
35 35 35 35 35 34 33 33 32 30 29 29 30 29 29 29 28 29 30 31 31 32
33 34 34 34 34 33 32 30 29 29 27 28 26 26 25 24 26 27 27 30 31 31
33 33 32 32 31 30 30 28 25 22 21 22 24 18 25 26 26 26 25 26 26 28
31 30 29 26 23 21 22 20 19 18 19 24 15 30 36 33 29 27 25 24 24 25
25 20 18 17 15 17 16 17 18 17 17 17 18 30 33 34 29 27 25 24 24 23
16 15 15 17 18 19 18 19 18 18 18 18 18 30 31 32 26 25 22 20 19 20
17 17 17 19 19 20 20 20 20 20 20 19 18 29 31 29 21 21 19 17 17 18
19 19 19 21 22 21 20 18 18 18 18 23 18 26 30 27 20 19 18 18 19 28
20 21 20 19 19 20 18 17 16 16 16 15 17 17 28 28 21 22 21 22 22 22

GFSNIL_sfc_dewp_198.txt.gz
Dewpoint
47 45 44 41 40 40 40 40 39 38 38 38 37 37 38 39 39 37 39 38 39 40
43 41 40 39 39 39 37 36 37 37 36 36 36 36 36 37 36 36 36 37 38 38
38 38 39 38 37 37 36 36 36 36 35 35 34 34 34 35 35 34 35 34 35 35
36 36 36 36 36 36 36 35 35 35 34 33 32 32 32 32 31 32 33 33 33 34
36 35 35 35 35 35 35 35 34 33 31 31 31 30 30 30 30 30 30 31 31 32
36 36 35 35 35 34 33 32 31 30 30 29 30 28 28 28 26 27 28 29 30 31
34 34 34 34 34 33 31 30 29 27 26 26 24 25 25 24 25 26 25 28 29 29
33 33 33 32 30 29 28 26 23 21 21 21 22 21 23 26 27 28 27 27 26 26
32 30 27 24 20 20 20 18 17 17 18 21 18 28 35 34 29 28 28 26 25 25
26 21 19 17 15 17 16 17 17 18 18 18 18 31 33 33 26 26 27 26 25 23
19 16 16 17 18 19 19 19 19 19 19 20 20 32 32 33 28 26 24 24 22 20
18 18 19 19 19 20 21 21 21 21 21 20 20 31 32 30 22 21 20 21 19 19
21 21 20 21 21 22 21 20 20 18 19 23 20 28 32 30 22 18 20 21 20 28
21 21 21 20 20 19 19 19 19 17 16 16 17 17 29 31 24 21 21 22 23 24

GFSNIL_sfc_dewp_201.txt.gz
Dewpoint
48 47 45 43 42 41 40 40 39 38 38 37 37 37 37 38 38 37 37 36 37 39
42 41 40 39 39 39 38 37 37 36 36 35 35 35 35 36 35 34 35 35 35 35
39 38 38 38 38 37 36 36 36 35 35 34 33 33 33 33 34 33 34 34 33 33
38 37 37 36 36 36 36 35 35 34 33 32 31 31 30 30 30 30 30 30 31 32
36 36 35 35 35 36 35 35 33 32 30 30 30 29 28 28 29 26 26 28 29 29
36 35 35 35 34 33 32 31 30 30 28 28 28 27 26 26 25 24 25 26 27 28
35 35 35 34 33 32 30 29 28 25 24 24 23 23 24 23 24 24 26 28 28 28
34 34 33 32 30 29 27 24 22 20 20 20 19 19 21 24 25 26 27 28 28 27
32 30 27 23 20 19 18 16 16 16 18 20 17 28 34 33 29 28 27 26 25 25
28 24 21 17 16 16 16 16 17 17 19 19 20 28 31 35 28 27 26 25 25 24
20 17 17 17 18 18 19 19 19 20 20 21 21 31 33 35 28 27 27 25 24 23
19 18 19 19 19 19 20 20 21 21 21 21 21 28 32 32 23 22 22 22 21 21
22 21 19 20 20 21 21 20 21 20 20 23 20 26 30 30 23 24 22 19 21 27
21 21 20 20 21 20 19 18 19 19 19 19 19 19 28 30 25 23 22 20 20 23

GFSNIL_sfc_dewp_204.txt.gz
Dewpoint
53 51 48 45 43 42 40 40 39 38 38 37 37 37 37 37 37 35 36 34 35 37
49 46 43 42 41 40 39 38 37 36 36 35 35 35 35 35 34 33 34 34 34 34
42 41 39 39 37 37 37 37 36 35 34 33 32 32 32 32 32 30 32 32 31 31
38 38 37 36 36 36 36 36 35 34 33 31 30 30 29 29 29 28 26 27 28 29
38 36 36 35 36 36 35 35 33 31 30 30 29 28 27 27 27 25 23 24 26 26
36 35 35 35 35 34 32 31 30 29 28 27 27 25 25 24 25 24 24 24 25 26
35 34 34 34 33 32 30 29 27 25 23 23 21 22 22 21 22 24 24 27 27 27
35 34 33 32 31 30 27 24 22 20 18 18 18 16 20 23 23 25 25 27 27 27
33 31 29 26 23 22 19 16 15 15 18 20 17 26 31 33 29 27 27 26 25 24
29 25 22 18 16 16 15 16 16 17 18 19 20 28 31 35 30 28 27 26 25 25
24 20 17 17 17 17 18 18 19 19 20 20 20 29 31 31 28 28 27 26 26 25
19 18 19 18 18 19 19 19 19 20 20 20 20 28 30 30 25 23 23 24 24 23
22 21 19 19 19 20 20 19 20 19 20 23 23 27 28 28 23 23 23 22 22 27
22 21 20 19 20 19 18 17 18 18 19 19 20 21 27 28 23 23 23 23 23 22

GFSNIL_sfc_dewp_210.txt.gz
Dewpoint
52 51 49 47 45 43 41 41 40 39 38 38 38 38 36 36 36 35 34 32 34 34
52 50 49 48 47 46 44 42 40 39 37 36 36 35 34 33 32 32 32 31 31 31
52 52 51 49 47 45 45 43 39 35 34 33 33 32 32 31 29 28 29 27 24 26
52 52 50 48 46 43 40 36 34 33 32 30 29 28 28 28 27 23 21 22 22 22
49 48 47 45 41 37 36 34 33 31 30 29 27 25 23 23 25 24 22 22 22 21
45 43 42 40 38 35 33 31 30 29 27 27 26 24 23 21 21 23 23 23 22 23
43 42 41 38 35 33 31 29 27 26 25 24 21 20 19 19 19 20 22 24 25 25
42 41 39 37 34 31 28 23 22 20 19 19 17 21 25 26 26 25 25 26 25 26
41 40 39 36 31 27 23 19 17 17 20 20 18 32 32 30 29 28 27 26 26 26
38 36 33 27 23 20 17 16 17 18 18 18 19 30 29 30 28 26 26 26 26 25
32 28 23 20 17 17 17 18 18 18 19 19 19 28 29 28 25 25 25 24 23 23
25 21 18 17 17 18 19 18 18 19 19 18 20 27 27 27 24 23 23 23 23 24
22 18 17 18 19 19 19 19 18 18 18 21 17 24 27 26 23 22 22 23 24 28
19 19 19 20 20 19 18 17 17 16 17 17 19 21 27 27 25 24 24 24 25 25

GFSNIL_sfc_dewp_213.txt.gz
Dewpoint
49 49 47 47 45 44 42 42 41 41 40 40 39 38 38 38 37 36 36 36 36 34
50 49 47 46 45 45 43 41 40 38 38 38 37 36 36 34 33 31 32 33 33 30
50 48 47 46 45 43 44 42 41 40 39 38 36 34 33 32 30 27 28 26 25 25
50 49 48 46 46 45 45 44 42 40 39 35 32 30 29 27 23 23 23 23 23 23
51 50 50 49 47 46 44 42 39 36 32 29 28 27 27 26 25 23 23 24 23 22
51 51 48 46 44 43 40 36 32 29 27 26 26 24 23 24 24 24 24 24 22 23
47 45 43 43 42 40 37 33 29 27 26 26 24 22 20 21 21 22 22 25 25 25
44 43 42 41 38 35 32 28 25 23 22 21 20 19 24 25 25 25 25 27 26 27
41 41 39 37 35 33 31 28 24 20 21 25 27 36 34 30 27 27 25 24 25 25
41 39 38 36 35 33 30 24 19 19 19 23 30 33 32 32 27 25 25 25 24 23
40 39 37 36 34 30 24 19 18 19 20 23 28 31 31 31 26 25 24 24 23 23
38 36 34 30 26 21 18 19 19 20 20 20 24 29 29 27 24 23 23 23 23 25
34 29 24 19 18 19 18 19 19 19 19 24 19 27 28 27 24 23 24 24 24 28
23 20 18 19 19 19 18 18 17 16 17 18 21 24 27 27 25 25 25 25 26 27